TimeCST,TemperatureF,Dew PointF,Humidity,Sea Level PressureIn,VisibilityMPH,Wind Direction,Wind SpeedMPH,Gust SpeedMPH,PrecipitationIn,Events,Conditions,WindDirDegrees,DateUTC
12:15 AM,41.0,41.0,100,30.35,10.0,Calm,Calm,-,N/A,,Clear,0,2013-01-23 06:15:00
12:35 AM,41.0,41.0,100,30.35,10.0,Calm,Calm,-,N/A,,Clear,0,2013-01-23 06:35:00
12:55 AM,39.2,39.2,100,30.36,10.0,Calm,Calm,-,N/A,,Clear,0,2013-01-23 06:55:00
1:15 AM,39.2,39.2,100,30.36,10.0,Calm,Calm,-,N/A,,Clear,0,2013-01-23 07:15:00
1:35 AM,41.0,41.0,100,30.35,10.0,Calm,Calm,-,N/A,,Clear,0,2013-01-23 07:35:00
1:55 AM,41.0,41.0,100,30.35,10.0,Calm,Calm,-,N/A,,Clear,0,2013-01-23 07:55:00
2:15 AM,41.0,41.0,100,30.35,10.0,Calm,Calm,-,N/A,,Clear,0,2013-01-23 08:15:00
2:35 AM,39.2,39.2,100,30.35,10.0,Calm,Calm,-,N/A,,Clear,0,2013-01-23 08:35:00
2:55 AM,39.2,39.2,100,30.35,10.0,Calm,Calm,-,N/A,,Clear,0,2013-01-23 08:55:00
3:15 AM,39.2,39.2,100,30.35,10.0,Calm,Calm,-,N/A,,Clear,0,2013-01-23 09:15:00
3:35 AM,39.2,39.2,100,30.35,10.0,Calm,Calm,-,N/A,,Clear,0,2013-01-23 09:35:00
3:55 AM,39.2,39.2,100,30.35,10.0,Calm,Calm,-,N/A,,Clear,0,2013-01-23 09:55:00
4:15 AM,39.2,39.2,100,30.35,10.0,Calm,Calm,-,N/A,,Clear,0,2013-01-23 10:15:00
4:35 AM,39.2,39.2,100,30.35,10.0,Calm,Calm,-,N/A,,Clear,0,2013-01-23 10:35:00
4:55 AM,39.2,39.2,100,30.35,10.0,Calm,Calm,-,N/A,,Clear,0,2013-01-23 10:55:00
5:15 AM,37.4,37.4,100,30.35,10.0,Calm,Calm,-,N/A,,Clear,0,2013-01-23 11:15:00
5:35 AM,39.2,39.2,100,30.36,10.0,Calm,Calm,-,N/A,,Clear,0,2013-01-23 11:35:00
5:55 AM,37.4,37.4,100,30.37,10.0,Calm,Calm,-,N/A,,Clear,0,2013-01-23 11:55:00
6:15 AM,37.4,37.4,100,30.38,10.0,Calm,Calm,-,N/A,,Scattered Clouds,0,2013-01-23 12:15:00
6:35 AM,37.4,37.4,100,30.38,10.0,Calm,Calm,-,N/A,,Scattered Clouds,0,2013-01-23 12:35:00
6:55 AM,39.2,39.2,100,30.38,7.0,Calm,Calm,-,N/A,,Mostly Cloudy,0,2013-01-23 12:55:00
7:15 AM,39.2,39.2,100,30.39,4.0,Calm,Calm,-,N/A,,Overcast,0,2013-01-23 13:15:00
7:35 AM,41.0,41.0,100,30.39,2.5,Calm,Calm,-,N/A,,Overcast,0,2013-01-23 13:35:00
7:55 AM,41.0,41.0,100,30.39,4.0,Calm,Calm,-,N/A,,Overcast,0,2013-01-23 13:55:00
8:15 AM,42.8,42.8,100,30.40,5.0,Calm,Calm,-,N/A,,Overcast,0,2013-01-23 14:15:00
8:35 AM,46.4,46.4,100,30.40,10.0,Calm,Calm,-,N/A,,Overcast,0,2013-01-23 14:35:00
8:55 AM,50.0,48.2,94,30.41,7.0,Calm,Calm,-,N/A,,Overcast,0,2013-01-23 14:55:00
9:15 AM,51.8,51.8,100,30.41,7.0,Calm,Calm,-,N/A,,Scattered Clouds,0,2013-01-23 15:15:00
9:35 AM,55.4,53.6,94,30.41,10.0,Calm,Calm,-,N/A,,Clear,0,2013-01-23 15:35:00
9:55 AM,59.0,51.8,77,30.41,10.0,SSW,4.6,-,N/A,,Clear,200,2013-01-23 15:55:00
10:15 AM,62.6,51.8,68,30.41,10.0,South,4.6,-,N/A,,Clear,190,2013-01-23 16:15:00
10:35 AM,64.4,51.8,64,30.41,10.0,South,3.5,-,N/A,,Clear,190,2013-01-23 16:35:00
10:55 AM,66.2,50.0,56,30.40,10.0,SW,4.6,-,N/A,,Clear,220,2013-01-23 16:55:00
11:15 AM,66.2,48.2,52,30.39,10.0,South,4.6,-,N/A,,Clear,170,2013-01-23 17:15:00
11:35 AM,68.0,48.2,49,30.39,10.0,SSW,4.6,-,N/A,,Clear,210,2013-01-23 17:35:00
11:55 AM,68.0,48.2,49,30.37,10.0,South,4.6,-,N/A,,Clear,180,2013-01-23 17:55:00
12:15 PM,68.0,48.2,49,30.36,10.0,Calm,Calm,-,N/A,,Clear,0,2013-01-23 18:15:00
12:35 PM,69.8,48.2,46,30.35,10.0,South,3.5,-,N/A,,Clear,180,2013-01-23 18:35:00
12:55 PM,69.8,48.2,46,30.34,10.0,South,3.5,-,N/A,,Clear,170,2013-01-23 18:55:00
1:15 PM,69.8,48.2,46,30.33,10.0,South,8.1,-,N/A,,Clear,190,2013-01-23 19:15:00
1:35 PM,69.8,50.0,49,30.33,10.0,SE,3.5,-,N/A,,Clear,130,2013-01-23 19:35:00
1:55 PM,69.8,50.0,49,30.33,10.0,Calm,Calm,-,N/A,,Clear,0,2013-01-23 19:55:00
2:15 PM,71.6,48.2,43,30.32,10.0,South,8.1,-,N/A,,Clear,180,2013-01-23 20:15:00
2:35 PM,71.6,48.2,43,30.31,10.0,South,8.1,-,N/A,,Clear,170,2013-01-23 20:35:00
2:55 PM,71.6,48.2,43,30.31,10.0,SSE,9.2,-,N/A,,Clear,160,2013-01-23 20:55:00
3:15 PM,71.6,46.4,41,30.31,10.0,South,8.1,-,N/A,,Clear,170,2013-01-23 21:15:00
3:35 PM,69.8,46.4,43,30.31,10.0,South,9.2,-,N/A,,Clear,170,2013-01-23 21:35:00
3:55 PM,69.8,46.4,43,30.31,10.0,South,10.4,-,N/A,,Clear,180,2013-01-23 21:55:00
4:15 PM,69.8,46.4,43,30.30,10.0,South,8.1,-,N/A,,Clear,180,2013-01-23 22:15:00
4:35 PM,69.8,46.4,43,30.31,10.0,South,6.9,-,N/A,,Clear,170,2013-01-23 22:35:00
4:55 PM,68.0,48.2,49,30.31,10.0,South,5.8,-,N/A,,Clear,180,2013-01-23 22:55:00
5:15 PM,64.4,48.2,56,30.30,10.0,South,6.9,-,N/A,,Clear,190,2013-01-23 23:15:00
5:35 PM,60.8,48.2,63,30.31,10.0,South,5.8,-,N/A,,Clear,180,2013-01-23 23:35:00
5:55 PM,59.0,48.2,67,30.31,10.0,South,5.8,-,N/A,,Clear,180,2013-01-23 23:55:00
6:15 PM,59.0,48.2,67,30.31,10.0,South,4.6,-,N/A,,Clear,180,2013-01-24 00:15:00
6:35 PM,59.0,48.2,67,30.31,10.0,South,4.6,-,N/A,,Clear,170,2013-01-24 00:35:00
6:55 PM,57.2,48.2,72,30.31,10.0,SSE,3.5,-,N/A,,Clear,160,2013-01-24 00:55:00
7:15 PM,55.4,50.0,82,30.31,10.0,Calm,Calm,-,N/A,,Clear,0,2013-01-24 01:15:00
7:35 PM,57.2,48.2,72,30.31,10.0,Calm,Calm,-,N/A,,Clear,0,2013-01-24 01:35:00
7:55 PM,57.2,48.2,72,30.32,10.0,Calm,Calm,-,N/A,,Clear,0,2013-01-24 01:55:00
8:15 PM,55.4,48.2,77,30.32,10.0,Calm,Calm,-,N/A,,Clear,0,2013-01-24 02:15:00
8:35 PM,53.6,48.2,82,30.32,10.0,Calm,Calm,-,N/A,,Clear,0,2013-01-24 02:35:00
8:55 PM,53.6,48.2,82,30.32,10.0,Calm,Calm,-,N/A,,Clear,0,2013-01-24 02:55:00
9:15 PM,55.4,50.0,82,30.32,10.0,Calm,Calm,-,N/A,,Clear,0,2013-01-24 03:15:00
9:35 PM,55.4,50.0,82,30.32,10.0,Calm,Calm,-,N/A,,Clear,0,2013-01-24 03:35:00
9:55 PM,53.6,50.0,88,30.32,10.0,Calm,Calm,-,N/A,,Clear,0,2013-01-24 03:55:00
10:15 PM,51.8,48.2,88,30.32,10.0,Calm,Calm,-,N/A,,Clear,0,2013-01-24 04:15:00
10:35 PM,51.8,50.0,94,30.33,10.0,Calm,Calm,-,N/A,,Clear,0,2013-01-24 04:35:00
10:55 PM,50.0,48.2,94,30.32,10.0,Calm,Calm,-,N/A,,Clear,0,2013-01-24 04:55:00
11:15 PM,50.0,48.2,94,30.32,10.0,Calm,Calm,-,N/A,,Clear,0,2013-01-24 05:15:00
11:35 PM,48.2,48.2,100,30.32,10.0,Calm,Calm,-,N/A,,Clear,0,2013-01-24 05:35:00
11:55 PM,48.2,46.4,93,30.32,10.0,Calm,Calm,-,N/A,,Clear,0,2013-01-24 05:55:00